Weather History for KDLL - December, 2013

Change the Weather History Date:

Sunday, December 15, 2013

  Actual Average Record
Temperature  
Mean Temperature 8 °F -  
Max Temperature 15 °F 31 °F 50 °F (2011)
Min Temperature 0 °F 13 °F -22 °F (1961)
Degree Days  
Heating Degree Days 58    
Moisture  
Dew Point -3 °F    
Average Humidity 62    
Maximum Humidity 80    
Minimum Humidity 47    
Precipitation  
Precipitation 0.00 in - - ()
Sea Level Pressure  
Sea Level Pressure 30.01 in    
Wind  
Wind Speed 10 mph (WNW)    
Max Wind Speed 16 mph    
Max Gust Speed 24 mph    
Visibility 10 miles    
Events Snow    
Averages and records for this station are not official NWS values.
T = Trace of Precipitation, MM = Missing Value Source: NWS Daily Summary

Daily Weather History Graph

Daily Weather History Graph

Search for Another Location

Airport or City:

Trip Planner

Search our weather history database for the weather conditions in past years. The results will help you decide how hot, cold, wet, or windy it might be!

Date:

Astronomy

Dec. 15, 2013 Rise Set
Actual Time 7:25 AM CST 4:23 PM CST
Civil Twilight 6:52 AM CST 4:56 PM CST
Nautical Twilight 6:16 AM CST 5:32 PM CST
Astronomical Twilight 5:41 AM CST 6:07 PM CST
Moon 3:29 PM CST (12/15) 5:39 AM CST (12/15)
Length of Visible Light 10h 03m
Length of Day
8h 57m
Waxing Gibbous, 98% of the Moon is Illuminated
Dec 15
Waxing Gibbous
Dec 17
Full
Dec 25
Last Quarter
Jan 1
New
Jan 7
First Quarter

Hourly Weather History & Observations

Time (CST) Temp. Windchill Dew Point Humidity Pressure Visibility Wind Dir Wind Speed Gust Speed Precip Events Conditions
12:15 AM 15.4 °F 1.0 °F 8.2 °F 73% 29.92 in 10.0 mi WNW 13.8 mph 18.4 mph N/A Snow Light Snow
12:35 AM 14.7 °F 0.7 °F 8.2 °F 75% 29.92 in 10.0 mi WNW 12.7 mph 17.3 mph N/A Snow Light Snow
12:55 AM 14.5 °F 2.7 °F 8.8 °F 78% 29.92 in 3.0 mi WNW 9.2 mph - N/A Snow Light Snow
1:15 AM 13.8 °F 0.2 °F 8.6 °F 80% 29.92 in 3.0 mi NW 11.5 mph 17.3 mph N/A Snow Light Snow
1:35 AM 12.7 °F -3.6 °F 5.0 °F 71% 29.93 in 10.0 mi WNW 16.1 mph 24.2 mph N/A   Overcast
1:55 AM 12.0 °F -4.0 °F 5.0 °F 73% 29.93 in 10.0 mi WNW 15.0 mph 20.7 mph N/A   Overcast
2:15 AM 11.3 °F -4.9 °F 4.6 °F 75% 29.93 in 10.0 mi WNW 15.0 mph 20.7 mph N/A   Overcast
2:35 AM 10.9 °F -2.6 °F 4.1 °F 74% 29.93 in 10.0 mi WNW 10.4 mph 17.3 mph N/A   Overcast
2:55 AM 10.8 °F -5.0 °F 3.9 °F 74% 29.94 in 10.0 mi WNW 13.8 mph 20.7 mph N/A   Overcast
3:15 AM 10.4 °F -4.1 °F 4.1 °F 76% 29.94 in 10.0 mi WNW 11.5 mph - N/A   Overcast
3:35 AM 10.2 °F -5.0 °F 3.6 °F 74% 29.94 in 10.0 mi West 12.7 mph 17.3 mph N/A   Overcast
3:55 AM 10.0 °F -3.7 °F 2.8 °F 73% 29.94 in 10.0 mi WNW 10.4 mph 19.6 mph N/A   Overcast
4:15 AM 9.1 °F -7.0 °F 1.8 °F 72% 29.95 in 10.0 mi NW 13.8 mph 18.4 mph N/A   Overcast
4:35 AM 8.6 °F -6.3 °F 1.4 °F 73% 29.95 in 10.0 mi WNW 11.5 mph - N/A   Overcast
4:55 AM 8.4 °F -8.6 °F 0.9 °F 71% 29.95 in 10.0 mi WNW 15.0 mph 19.6 mph N/A   Overcast
5:15 AM 8.2 °F -8.8 °F 0.5 °F 71% 29.96 in 10.0 mi WNW 15.0 mph 18.4 mph N/A   Overcast
5:35 AM 8.1 °F -6.2 °F 0.5 °F 71% 29.96 in 10.0 mi WNW 10.4 mph 17.3 mph N/A   Overcast
5:55 AM 7.7 °F -7.4 °F 0.3 °F 72% 29.96 in 10.0 mi WNW 11.5 mph 18.4 mph N/A   Overcast
6:15 AM 7.7 °F -6.6 °F 0.7 °F 73% 29.97 in 10.0 mi WNW 10.4 mph 17.3 mph N/A   Overcast
6:35 AM 7.7 °F -4.8 °F 0.7 °F 73% 29.97 in 10.0 mi WNW 8.1 mph - N/A   Overcast
6:55 AM 7.7 °F -4.8 °F 0.7 °F 73% 29.97 in 10.0 mi NW 8.1 mph - N/A   Overcast
7:15 AM 7.5 °F -6.0 °F -0.2 °F 71% 29.97 in 10.0 mi WNW 9.2 mph - N/A   Overcast
7:35 AM 7.5 °F -3.9 °F -0.8 °F 69% 29.97 in 10.0 mi WNW 6.9 mph 16.1 mph N/A   Overcast
7:55 AM 7.5 °F -6.9 °F -0.2 °F 71% 29.97 in 10.0 mi West 10.4 mph 16.1 mph N/A   Overcast
8:15 AM 7.2 °F -6.4 °F -1.5 °F 68% 29.99 in 10.0 mi WNW 9.2 mph - N/A   Overcast
8:35 AM 7.5 °F -6.0 °F -1.8 °F 66% 29.99 in 10.0 mi NW 9.2 mph - N/A   Overcast
8:55 AM 7.5 °F -7.7 °F -2.0 °F 65% 29.99 in 10.0 mi NW 11.5 mph 17.3 mph N/A   Overcast
9:15 AM 7.5 °F -5.0 °F -2.0 °F 65% 30.00 in 10.0 mi WNW 8.1 mph - N/A   Overcast
9:35 AM 7.5 °F -6.9 °F -1.5 °F 67% 30.01 in 10.0 mi WNW 10.4 mph - N/A   Overcast
9:55 AM 7.7 °F -5.8 °F -1.7 °F 66% 30.01 in 10.0 mi WNW 9.2 mph - N/A   Overcast
10:15 AM 7.7 °F -6.6 °F -1.8 °F 65% 30.01 in 10.0 mi WNW 10.4 mph 16.1 mph N/A   Overcast
10:35 AM 8.2 °F -5.1 °F -2.6 °F 61% 30.02 in 10.0 mi NW 9.2 mph - N/A   Overcast
10:55 AM 8.6 °F -6.3 °F -2.4 °F 61% 30.01 in 10.0 mi West 11.5 mph - N/A   Mostly Cloudy
11:15 AM 9.5 °F -5.9 °F -2.4 °F 59% 30.00 in 10.0 mi West 12.7 mph - N/A   Scattered Clouds
11:35 AM 9.7 °F -2.4 °F -2.4 °F 58% 30.00 in 10.0 mi WNW 8.1 mph 18.4 mph N/A   Clear
11:55 AM 9.5 °F -4.4 °F -2.9 °F 57% 30.00 in 10.0 mi WNW 10.4 mph - N/A   Clear
12:15 PM 10.2 °F -1.7 °F -3.3 °F 55% 29.99 in 10.0 mi WNW 8.1 mph 17.3 mph N/A   Clear
12:35 PM 10.0 °F -4.5 °F -2.9 °F 56% 30.00 in 10.0 mi West 11.5 mph 18.4 mph N/A   Clear
12:55 PM 10.8 °F -3.6 °F -2.9 °F 54% 29.98 in 10.0 mi West 11.5 mph 18.4 mph N/A   Clear
1:15 PM 11.1 °F -3.2 °F -3.1 °F 53% 29.98 in 10.0 mi West 11.5 mph - N/A   Clear
1:35 PM 11.1 °F -1.6 °F -4.4 °F 50% 29.98 in 10.0 mi NW 9.2 mph 17.3 mph N/A   Clear
1:55 PM 11.1 °F -4.5 °F -4.0 °F 51% 29.99 in 10.0 mi West 13.8 mph 18.4 mph N/A   Clear
2:15 PM 10.9 °F -4.7 °F -4.7 °F 49% 30.00 in 10.0 mi WNW 13.8 mph 20.7 mph N/A   Clear
2:35 PM 10.4 °F -4.1 °F -4.7 °F 51% 30.00 in 10.0 mi WNW 11.5 mph - N/A   Clear
2:55 PM 10.6 °F 1.0 °F -5.8 °F 48% 30.00 in 10.0 mi WNW 5.8 mph - N/A   Clear
3:15 PM 10.2 °F -4.3 °F -6.5 °F 47% 30.01 in 10.0 mi West 11.5 mph - N/A   Clear
3:35 PM 9.5 °F -3.5 °F -6.7 °F 48% 30.02 in 10.0 mi WNW 9.2 mph - N/A   Clear
3:55 PM 9.3 °F -3.8 °F -7.1 °F 48% 30.02 in 10.0 mi West 9.2 mph - N/A   Clear
4:15 PM 8.2 °F -3.0 °F -7.6 °F 49% 30.02 in 10.0 mi West 6.9 mph - N/A   Clear
4:35 PM 7.3 °F -6.2 °F -7.4 °F 51% 30.03 in 10.0 mi WNW 9.2 mph - N/A   Clear
4:55 PM 6.8 °F -2.0 °F -8.5 °F 50% 30.03 in 10.0 mi WNW 4.6 mph - N/A   Clear
5:15 PM 6.3 °F -2.6 °F -8.5 °F 51% 30.03 in 10.0 mi NW 4.6 mph - N/A   Clear
5:35 PM 5.7 °F -3.2 °F -8.7 °F 52% 30.04 in 10.0 mi NW 4.6 mph - N/A   Clear
5:55 PM 5.0 °F -2.1 °F -8.7 °F 53% 30.04 in 10.0 mi NW 3.5 mph - N/A   Clear
6:15 PM 4.6 °F -2.5 °F -8.5 °F 55% 30.05 in 10.0 mi NW 3.5 mph - N/A   Clear
6:35 PM 4.1 °F -3.2 °F -9.0 °F 55% 30.06 in 10.0 mi NNW 3.5 mph - N/A   Clear
6:55 PM 3.2 °F -4.2 °F -9.4 °F 56% 30.06 in 10.0 mi NW 3.5 mph - N/A   Clear
7:15 PM 3.2 °F -9.1 °F -10.1 °F 54% 30.07 in 10.0 mi NW 6.9 mph - N/A   Clear
7:35 PM 2.8 °F -8.2 °F -10.1 °F 55% 30.07 in 10.0 mi NW 5.8 mph - N/A   Clear
7:55 PM 2.3 °F -8.8 °F -10.3 °F 56% 30.08 in 10.0 mi NW 5.8 mph - N/A   Clear
8:15 PM 1.9 °F -9.2 °F -10.5 °F 56% 30.08 in 10.0 mi NW 5.8 mph - N/A   Clear
8:35 PM 1.8 °F -7.8 °F -10.5 °F 57% 30.09 in 10.0 mi NNW 4.6 mph - N/A   Clear
8:55 PM 1.8 °F -9.5 °F -10.5 °F 57% 30.09 in 10.0 mi NW 5.8 mph - N/A   Clear
9:15 PM 1.4 °F -9.9 °F -10.8 °F 57% 30.08 in 10.0 mi NNW 5.8 mph - N/A   Clear
9:35 PM 1.4 °F -9.9 °F -10.5 °F 58% 30.09 in 10.0 mi NNW 5.8 mph - N/A   Scattered Clouds
9:55 PM 1.0 °F -10.3 °F -10.7 °F 58% 30.10 in 10.0 mi NW 5.8 mph - N/A   Scattered Clouds
10:15 PM 0.5 °F -9.3 °F -11.4 °F 57% 30.11 in 10.0 mi NNW 4.6 mph - N/A   Scattered Clouds
10:35 PM 0.9 °F -10.5 °F -10.8 °F 58% 30.11 in 10.0 mi NW 5.8 mph - N/A   Overcast
10:55 PM 0.5 °F -9.3 °F -11.2 °F 58% 30.11 in 10.0 mi NNW 4.6 mph - N/A   Scattered Clouds
11:15 PM 0.7 °F - -10.5 °F 59% 30.11 in 10.0 mi Calm Calm - N/A   Clear
11:35 PM 0.3 °F -9.5 °F -10.5 °F 60% 30.10 in 10.0 mi NW 4.6 mph - N/A   Clear
11:55 PM -0.4 °F - -10.7 °F 62% 30.11 in 10.0 mi Calm Calm - N/A   Clear